Regional Weather Roundup
Issued by NWS

Home | Current Version | Previous Version | Text Only | Print | Product List | Glossary Off
Versions: 1 2 3 4 5 6 7 8 9 10 11 12 13 14 15 16 17 18 19 20 21 22 23 24 25 26 27 28 29 30 31 32 33 34 35 36 37 38 39 40 41 42 43 44 45 46 47 48 49 50

000
ASUS45 KCYS 181810
RWRWY

WYOMING REGIONAL WEATHER ROUNDUP
NATIONAL WEATHER SERVICE CHEYENNE WY
1200 PM MDT WED APR 18 2018

NOTE:  "FAIR" INDICATES FEW OR NO CLOUDS BELOW 12,000 FEET
WITH NO SIGNIFICANT WEATHER AND/OR OBSTRUCTIONS TO VISIBILITY.

WYZ001-181900-
YELLOWSTONE NATIONAL PARK

CITY           SKY/WX    TMP DP  RH WIND       PRES   REMARKS
LK YELLOWSTONE   N/A     31  16  54 VRB6      30.24F WCI  25
6HR MIN TEMP:   7; 6HR MAX TEMP:  31;

W YELLOWSTONE  NOT AVBL

$$
WYZ002>013-054>058-071-098>099-181900-
NORTHERN WYOMING

CITY           SKY/WX    TMP DP  RH WIND       PRES   REMARKS
JACKSON        FAIR      35  20  54 SW8       30.25F WCI  29
CODY           FAIR      45  14  28 VRB3      30.23S
GREYBULL       FAIR      46  29  51 E7        30.24F
6HR MIN TEMP:  29; 6HR MAX TEMP:  47;

WORLAND        FAIR      47  20  34 NE8       30.24F
6HR MIN TEMP:  23; 6HR MAX TEMP:  48;

SHERIDAN       FAIR      50  25  37 NW13G18   30.25S
6HR MIN TEMP:  28; 6HR MAX TEMP:  50;

BUFFALO        FAIR      46  19  34 N12G23    30.25R
6HR MIN TEMP:  33; 6HR MAX TEMP:  47;

GILLETTE       PTSUNNY   45  25  45 NW15      30.23R
6HR MIN TEMP:  31; 6HR MAX TEMP:  48;

HULETT         MOCLDY    46  27  46 NW13G23   30.21S
NEWCASTLE      FAIR      46  21  36 NW23G36   30.21S

$$
WYZ014>020-022>026-101>103-181900-
CENTRAL WYOMING

CITY           SKY/WX    TMP DP  RH WIND       PRES   REMARKS
BIG PINEY      FAIR      37   7  28 VRB6      30.25F WCI  32
6HR MIN TEMP:   6; 6HR MAX TEMP:  37;

PINEDALE       FAIR      36  12  38 CALM      30.25F
DUBOIS         FAIR      41   3  20 N20       30.17F
LANDER         FAIR      44  17  33 SE8       30.21F
6HR MIN TEMP:  23; 6HR MAX TEMP:  45;

RIVERTON       FAIR      43  18  36 SE6       30.24S
6HR MIN TEMP:  23; 6HR MAX TEMP:  45;

CASPER         FAIR      39  27  62 SW13      30.26S WCI  31
6HR MIN TEMP:  18; 6HR MAX TEMP:  39;

DOUGLAS        FAIR      46  25  43 W13       30.26S
6HR MIN TEMP:  26; 6HR MAX TEMP:  46;


$$
WYZ021-027>030-104>119-181900-
SOUTHERN WYOMING

CITY           SKY/WX    TMP DP  RH WIND       PRES   REMARKS
EVANSTON       FAIR      38   9  30 VRB3      30.23F
6HR MIN TEMP:  19; 6HR MAX TEMP:  40;

KEMMERER       FAIR      37   7  28 S6        30.24F WCI  33
FORT BRIDGER   FAIR      41   9  26 S6        30.26F
ROCK SPRINGS   FAIR      41   8  25 VRB6      30.25F
6HR MIN TEMP:  19; 6HR MAX TEMP:  41;

DIXON          FAIR      37  16  42 SW7       30.33S WCI  32
RAWLINS        FAIR      39  15  37 SW14      30.26F WCI  31
6HR MIN TEMP:  21; 6HR MAX TEMP:  41;

SARATOGA       FAIR      37   9  30 W7        30.28S WCI  32
LARAMIE        FAIR      39  15  37 NW14G22   30.24R WCI  31
6HR MIN TEMP:  12; 6HR MAX TEMP:  39;

CHEYENNE       FAIR      43  12  28 NW18G25   30.25R
6HR MIN TEMP:  29; 6HR MAX TEMP:  43;

TORRINGTON     FAIR      49  23  36 NW21G33   30.23R
6HR MIN TEMP:  28; 6HR MAX TEMP:  49;

PINE BLUFFS    FAIR      45  18  33 NW22G28   30.26R

$$



USA.gov is the U.S. government's official web portal to all federal, state and local government web resources and services.